Location: B?dimalle
(17.1788°N, 80.5377°E)
Time: 15:23:53
(UTC+00:00)

Vanguard 1 - Pass Details

Date: 22 February 2026
Orbit: 653 x 3818 km, 34.2° (Epoch: 9 March)

Event Time Altitude Azimuth Distance (km) Brightness Sun altitude
Rises 14:34:40 0° 301° (WNW) 6,347 15.0 -27.5°
Reaches altitude 10° 14:38:14 10° 303° (WNW) 5,661 14.6 -28.3°
Maximum altitude 14:57:57 86° 33° (NNE) 3,734 12.7 -33.0°
Enters shadow 15:08:51 45° 119° (ESE) 4,624 12.9 -35.6°
